Total_Precipitation_Accumulation
0.00 0.00 0.00 0.00 0.00 0.00 0.00 0.00 0.00 0.00 0.00 0.00 0.00 0.00 0.00 0.00 0.00 0.00 0.00 0.00 0.00 0.00 0.00 0.00 0.00 0.00 0.00 0.00 0.00 0.00 0.00 0.06 0.03 0.13 0.14 0.04 0.05 0.03 0.01 0.01 0.03 0.07 0.08 0.07 0.05 0.04 0.05 0.03 0.02 0.06 0.01 0.01 0.00 0.00 0.00 0.00 0.00 0.00 0.00 0.00 0.00 0.00 0.00 0.00 0.00 0.01 0.01 0.00 0.00 0.00 0.00 0.00 0.00 0.00 0.00 0.00 0.00 0.00 0.01 0.01 0.01 0.02 0.05 0.08 0.04 0.06 0.03 0.01 0.01 0.01 0.01 0.01 0.01 0.01 0.00 0.00 0.01
0.00 0.00 0.00 0.00 0.00 0.00 0.00 0.00 0.00 0.00 0.00 0.00 0.00 0.00 0.00 0.00 0.00 0.00 0.00 0.00 0.00 0.00 0.00 0.00 0.00 0.00 0.00 0.00 0.00 0.00 0.00 0.01 0.00 0.03 0.09 0.06 0.05 0.04 0.12 0.04 0.01 0.07 0.14 0.10 0.06 0.05 0.08 0.08 0.04 0.04 0.02 0.02 0.01 0.00 0.00 0.00 0.00 0.00 0.00 0.00 0.00 0.01 0.07 0.00 0.00 0.00 0.00 0.00 0.00 0.00 0.00 0.00 0.00 0.01 0.00 0.00 0.01 0.01 0.01 0.01 0.04 0.03 0.06 0.06 0.05 0.08 0.02 0.04 0.01 0.01 0.01 0.02 0.02 0.03 0.02 0.01 0.02
0.00 0.00 0.00 0.00 0.00 0.00 0.00 0.00 0.00 0.00 0.00 0.00 0.00 0.00 0.00 0.00 0.00 0.00 0.00 0.00 0.00 0.00 0.00 0.00 0.00 0.00 0.00 0.00 0.00 0.00 0.28 0.03 0.01 0.02 0.09 0.09 0.07 0.18 0.05 0.18 0.10 0.17 0.28 0.23 0.06 0.07 0.09 0.07 0.04 0.07 0.04 0.02 0.01 0.00 0.01 0.00 0.00 0.00 0.00 0.00 0.00 0.00 0.00 0.02 0.01 0.00 0.00 0.00 0.00 0.00 0.00 0.01 0.00 0.00 0.00 0.01 0.01 0.00 0.00 0.02 0.03 0.06 0.10 0.09 0.02 0.10 0.07 0.02 0.02 0.02 0.03 0.05 0.04 0.02 0.02 0.02 0.01
0.00 0.00 0.00 0.00 0.00 0.00 0.00 0.00 0.00 0.00 0.00 0.00 0.00 0.00 0.00 0.00 0.00 0.00 0.00 0.00 0.00 0.00 0.00 0.00 0.00 0.00 0.00 0.00 0.02 0.00 0.04 0.03 0.03 0.02 0.10 0.07 0.05 0.07 0.05 0.17 0.18 0.31 0.40 0.18 0.06 0.09 0.08 0.08 0.04 0.06 0.06 0.02 0.01 0.01 0.01 0.01 0.01 0.00 0.00 0.00 0.00 0.00 0.00 0.00 0.01 0.00 0.00 0.00 0.00 0.00 0.00 0.01 0.01 0.02 0.02 0.01 0.00 0.04 0.03 0.01 0.01 0.02 0.02 0.05 0.02 0.05 0.05 0.04 0.03 0.05 0.03 0.03 0.02 0.02 0.02 0.01 0.01
0.00 0.00 0.00 0.00 0.00 0.00 0.00 0.00 0.00 0.00 0.00 0.00 0.00 0.00 0.00 0.00 0.00 0.00 0.00 0.00 0.00 0.00 0.00 0.00 0.00 0.00 0.00 0.01 0.01 0.03 0.03 0.02 0.03 0.02 0.02 0.05 0.03 0.07 0.27 0.23 0.24 0.31 0.15 0.19 0.10 0.07 0.09 0.04 0.05 0.06 0.06 0.03 0.01 0.01 0.01 0.00 0.00 0.00 0.00 0.00 0.00 0.00 0.00 0.00 0.00 0.00 0.00 0.00 0.00 0.00 0.00 0.01 0.05 0.05 0.02 0.02 0.00 0.03 0.01 0.02 0.01 0.01 0.01 0.00 0.03 0.01 0.01 0.01 0.01 0.02 0.01 0.04 0.04 0.03 0.02 0.02 0.02
0.00 0.00 0.00 0.00 0.00 0.00 0.00 0.00 0.00 0.00 0.00 0.00 0.00 0.00 0.00 0.00 0.00 0.00 0.00 0.00 0.00 0.00 0.00 0.00 0.00 0.00 0.01 0.06 0.05 0.04 0.03 0.10 0.03 0.03 0.03 0.10 0.05 0.16 0.38 0.51 0.40 0.34 0.11 0.13 0.10 0.13 0.16 0.02 0.03 0.04 0.06 0.06 0.02 0.02 0.01 0.01 0.01 0.00 0.00 0.00 0.00 0.00 0.00 0.00 0.00 0.00 0.00 0.00 0.00 0.01 0.01 0.01 0.03 0.04 0.03 0.04 0.01 0.01 0.05 0.01 0.00 0.00 0.01 0.02 0.01 0.01 0.01 0.00 0.00 0.00 0.06 0.06 0.04 0.02 0.02 0.03 0.03
0.00 0.00 0.00 0.00 0.00 0.00 0.00 0.00 0.00 0.00 0.00 0.00 0.00 0.00 0.00 0.00 0.00 0.00 0.00 0.00 0.00 0.00 0.00 0.00 0.00 0.00 0.06 0.01 0.00 0.05 0.03 0.03 0.05 0.05 0.02 0.05 0.25 0.37 0.42 0.45 0.31 0.14 0.09 0.09 0.12 0.16 0.11 0.04 0.03 0.04 0.05 0.05 0.11 0.04 0.01 0.02 0.01 0.00 0.01 0.01 0.01 0.00 0.00 0.00 0.00 0.01 0.01 0.01 0.01 0.01 0.00 0.01 0.04 0.06 0.04 0.08 0.04 0.02 0.04 0.00 0.00 0.00 0.01 0.00 0.01 0.04 0.01 0.00 0.00 0.00 0.00 0.09 0.01 0.02 0.02 0.01 0.01
0.00 0.00 0.00 0.00 0.00 0.00 0.00 0.00 0.00 0.00 0.00 0.00 0.00 0.00 0.00 0.00 0.00 0.00 0.00 0.00 0.00 0.00 0.00 0.00 0.00 0.01 0.46 0.01 0.20 0.01 0.03 0.02 0.09 0.14 0.02 0.06 0.23 0.66 0.64 0.38 0.19 0.08 0.09 0.12 0.13 0.11 0.10 0.02 0.03 0.02 0.03 0.03 0.18 0.16 0.07 0.06 0.03 0.01 0.01 0.02 0.01 0.01 0.02 0.01 0.01 0.01 0.01 0.01 0.02 0.03 0.05 0.05 0.03 0.08 0.07 0.12 0.17 0.06 0.06 0.01 0.00 0.02 0.00 0.01 0.01 0.03 0.03 0.01 0.01 0.01 0.02 0.04 0.02 0.00 0.01 0.00 0.00
0.00 0.00 0.00 0.00 0.00 0.00 0.00 0.00 0.00 0.00 0.00 0.00 0.00 0.00 0.00 0.00 0.00 0.00 0.00 0.00 0.00 0.00 0.00 0.00 0.00 0.05 0.10 0.08 0.13 0.06 0.09 0.10 0.05 0.24 0.15 0.14 0.36 0.89 0.98 0.87 0.39 0.07 0.09 0.25 0.17 0.08 0.05 0.03 0.02 0.01 0.02 0.02 0.04 0.14 0.10 0.14 0.05 0.04 0.02 0.03 0.03 0.06 0.09 0.03 0.02 0.01 0.02 0.01 0.01 0.04 0.07 0.06 0.03 0.05 0.02 0.04 0.11 0.05 0.04 0.05 0.01 0.03 0.01 0.01 0.02 0.04 0.01 0.02 0.02 0.06 0.06 0.03 0.02 0.02 0.00 0.00 0.00
0.00 0.00 0.00 0.00 0.00 0.00 0.00 0.00 0.00 0.00 0.00 0.00 0.00 0.00 0.00 0.00 0.00 0.00 0.00 0.00 0.00 0.00 0.00 0.00 0.00 0.01 0.04 0.28 0.12 0.20 0.16 0.10 0.20 0.29 0.04 0.24 0.76 1.08 0.64 0.25 0.53 0.31 0.60 0.46 0.27 0.14 0.09 0.11 0.01 0.01 0.01 0.01 0.04 0.09 0.04 0.02 0.04 0.03 0.02 0.03 0.08 0.04 0.05 0.11 0.01 0.01 0.02 0.03 0.01 0.01 0.07 0.07 0.05 0.03 0.18 0.14 0.22 0.15 0.06 0.03 0.01 0.02 0.01 0.02 0.04 0.08 0.02 0.02 0.07 0.04 0.06 0.09 0.05 0.02 0.01 0.00 0.00
0.00 0.00 0.00 0.00 0.00 0.00 0.00 0.00 0.00 0.00 0.00 0.00 0.00 0.00 0.00 0.00 0.00 0.00 0.00 0.00 0.00 0.00 0.00 0.00 0.00 0.00 0.02 0.11 0.36 0.22 0.27 0.27 0.45 0.30 0.14 0.37 0.87 0.69 0.47 0.24 0.37 0.72 0.77 0.67 0.44 0.32 0.16 0.11 0.09 0.02 0.01 0.01 0.03 0.10 0.11 0.05 0.01 0.01 0.01 0.00 0.01 0.02 0.02 0.03 0.02 0.01 0.01 0.03 0.02 0.02 0.08 0.12 0.07 0.01 0.05 0.15 0.16 0.08 0.05 0.02 0.02 0.04 0.03 0.03 0.02 0.02 0.02 0.02 0.05 0.04 0.11 0.02 0.01 0.01 0.00 0.00 0.00
0.00 0.00 0.00 0.00 0.00 0.00 0.00 0.00 0.00 0.00 0.00 0.00 0.00 0.00 0.00 0.00 0.00 0.00 0.00 0.00 0.00 0.00 0.00 0.00 0.06 0.00 0.09 0.11 0.12 0.30 0.45 0.26 0.51 0.20 0.45 0.38 0.37 0.29 0.29 0.18 0.43 0.59 0.49 0.41 0.28 0.27 0.26 0.14 0.13 0.12 0.01 0.02 0.04 0.05 0.10 0.20 0.11 0.02 0.01 0.01 0.01 0.00 0.01 0.00 0.00 0.02 0.01 0.02 0.01 0.03 0.02 0.04 0.10 0.08 0.04 0.04 0.04 0.03 0.06 0.04 0.07 0.08 0.05 0.02 0.00 0.02 0.00 0.02 0.01 0.01 0.04 0.01 0.00 0.00 0.00 0.00 0.00
0.00 0.00 0.00 0.00 0.00 0.00 0.00 0.00 0.00 0.00 0.00 0.00 0.00 0.00 0.00 0.00 0.00 0.00 0.00 0.00 0.00 0.00 0.00 0.00 0.00 0.01 0.46 0.08 0.10 0.33 0.42 0.35 0.43 0.25 0.46 0.47 0.06 0.49 0.46 0.48 0.42 0.38 0.32 0.29 0.28 0.16 0.14 0.08 0.11 0.13 0.12 0.04 0.03 0.11 0.11 0.31 0.28 0.19 0.20 0.11 0.02 0.01 0.03 0.01 0.02 0.00 0.02 0.04 0.03 0.02 0.06 0.04 0.11 0.04 0.09 0.10 0.04 0.04 0.05 0.01 0.02 0.01 0.08 0.01 0.01 0.00 0.01 0.01 0.03 0.03 0.03 0.01 0.00 0.00 0.00 0.00 0.00
0.00 0.00 0.00 0.00 0.00 0.00 0.00 0.00 0.00 0.00 0.00 0.00 0.00 0.00 0.00 0.00 0.00 0.00 0.00 0.00 0.00 0.00 0.00 0.00 0.00 0.02 0.27 0.17 0.22 0.38 0.50 0.16 0.06 0.07 0.09 0.29 0.36 0.40 0.77 0.73 0.42 0.35 0.24 0.39 0.49 0.18 0.13 0.08 0.10 0.12 0.13 0.14 0.19 0.34 0.45 0.45 0.37 0.15 0.15 0.10 0.07 0.03 0.08 0.07 0.04 0.03 0.02 0.02 0.02 0.02 0.07 0.07 0.05 0.04 0.06 0.01 0.06 0.02 0.00 0.00 0.01 0.01 0.03 0.01 0.00 0.00 0.01 0.01 0.02 0.04 0.04 0.00 0.00 0.00 0.00 0.00 0.00
0.00 0.00 0.00 0.00 0.00 0.00 0.00 0.00 0.00 0.00 0.00 0.00 0.00 0.00 0.00 0.00 0.00 0.00 0.00 0.00 0.00 0.00 0.00 0.00 0.00 0.03 0.88 0.10 0.12 0.19 0.25 0.11 0.14 0.16 0.03 0.04 0.14 0.34 0.40 0.45 0.56 0.21 0.40 0.54 0.99 0.33 0.30 0.14 0.11 0.10 0.12 0.14 0.24 0.33 0.46 0.38 0.32 0.32 0.16 0.16 0.09 0.07 0.22 0.14 0.09 0.07 0.08 0.05 0.03 0.05 0.09 0.06 0.07 0.08 0.07 0.03 0.00 0.00 0.00 0.00 0.00 0.01 0.02 0.01 0.01 0.01 0.00 0.01 0.01 0.01 0.03 0.00 0.00 0.00 0.00 0.00 0.00
0.00 0.00 0.00 0.00 0.00 0.00 0.00 0.00 0.00 0.00 0.00 0.00 0.00 0.00 0.00 0.00 0.00 0.00 0.00 0.00 0.00 0.00 0.00 0.01 0.00 0.02 0.07 0.02 0.07 0.14 0.17 0.18 0.12 0.15 0.09 0.12 0.17 0.14 0.27 0.34 0.32 0.44 0.20 0.72 0.73 0.22 0.24 0.16 0.14 0.12 0.17 0.16 0.24 0.46 0.66 0.71 0.36 0.27 0.28 0.11 0.08 0.23 0.31 0.20 0.28 0.16 0.19 0.17 0.13 0.11 0.12 0.08 0.12 0.11 0.26 0.13 0.05 0.03 0.00 0.04 0.00 0.04 0.04 0.02 0.02 0.02 0.01 0.02 0.01 0.01 0.00 0.00 0.00 0.00 0.00 0.00 0.00
0.00 0.00 0.00 0.00 0.00 0.00 0.00 0.00 0.00 0.00 0.00 0.00 0.00 0.00 0.00 0.00 0.00 0.00 0.00 0.00 0.00 0.00 0.00 0.00 0.01 0.00 0.01 0.03 0.03 0.08 0.14 0.06 0.08 0.10 0.05 0.10 0.11 0.15 0.23 0.19 0.09 0.13 0.19 0.47 0.50 0.13 0.14 0.16 0.19 0.19 0.18 0.26 0.17 0.31 0.59 0.59 0.50 0.32 0.17 0.15 0.20 0.23 0.17 0.20 0.24 0.23 0.15 0.14 0.11 0.13 0.07 0.30 0.45 0.54 0.15 0.38 0.12 0.14 0.02 0.00 0.01 0.03 0.03 0.03 0.02 0.07 0.05 0.03 0.01 0.02 0.00 0.00 0.00 0.00 0.00 0.00 0.00
0.00 0.00 0.00 0.00 0.00 0.00 0.00 0.00 0.00 0.00 0.00 0.00 0.00 0.00 0.00 0.00 0.00 0.00 0.00 0.00 0.00 0.00 0.02 0.02 0.01 0.03 0.09 0.08 0.06 0.04 0.06 0.08 0.10 0.09 0.09 0.09 0.09 0.16 0.17 0.19 0.09 0.18 0.18 0.28 0.29 0.18 0.18 0.29 0.12 0.19 0.26 0.25 0.38 0.52 0.52 0.46 0.89 0.30 0.20 0.31 0.40 0.18 0.13 0.12 0.39 0.29 0.63 0.26 0.13 0.18 0.29 0.45 0.74 1.03 0.46 0.64 0.45 0.19 0.20 0.02 0.04 0.03 0.03 0.02 0.03 0.02 0.01 0.04 0.04 0.01 0.00 0.00 0.00 0.00 0.00 0.00 0.00
0.00 0.00 0.00 0.00 0.00 0.00 0.00 0.00 0.00 0.00 0.00 0.00 0.00 0.00 0.00 0.00 0.00 0.00 0.04 0.01 0.00 0.00 0.01 0.02 0.04 0.05 0.09 0.08 0.08 0.09 0.06 0.12 0.09 0.07 0.08 0.07 0.14 0.11 0.14 0.11 0.22 0.18 0.27 0.24 0.13 0.15 0.08 0.07 0.12 0.18 0.25 0.44 0.44 0.62 0.47 0.74 0.43 0.51 0.75 0.53 0.42 0.46 0.54 0.61 0.26 0.48 0.49 0.50 0.38 0.24 0.52 0.57 0.69 1.35 0.81 0.44 0.90 0.64 0.22 0.08 0.05 0.06 0.06 0.03 0.02 0.01 0.02 0.02 0.06 0.03 0.00 0.00 0.00 0.00 0.00 0.00 0.00
0.00 0.00 0.00 0.00 0.00 0.00 0.00 0.00 0.00 0.00 0.00 0.00 0.00 0.00 0.00 0.00 0.00 0.00 0.00 0.00 0.00 0.01 0.01 0.06 0.03 0.10 0.06 0.11 0.07 0.10 0.16 0.11 0.10 0.08 0.05 0.06 0.09 0.09 0.08 0.11 0.13 0.07 0.17 0.15 0.34 0.09 0.07 0.07 0.07 0.11 0.25 0.49 0.36 0.81 0.76 0.45 0.69 0.53 0.39 0.50 0.38 0.41 0.40 0.56 0.46 0.46 0.46 0.60 0.60 0.46 0.32 0.97 1.40 1.36 0.87 0.94 0.75 0.59 0.43 0.15 0.11 0.10 0.13 0.12 0.08 0.07 0.04 0.03 0.02 0.03 0.01 0.00 0.00 0.00 0.02 0.00 0.00
0.00 0.00 0.00 0.00 0.00 0.00 0.00 0.00 0.00 0.00 0.00 0.00 0.00 0.00 0.00 0.00 0.00 0.00 0.00 0.01 0.02 0.01 0.04 0.01 0.02 0.05 0.06 0.11 0.09 0.14 0.18 0.12 0.13 0.17 0.07 0.11 0.11 0.24 0.13 0.08 0.08 0.08 0.25 0.24 0.24 0.10 0.14 0.05 0.18 0.16 0.69 0.38 0.57 0.54 0.43 0.41 0.89 1.20 0.75 0.61 0.44 0.50 0.46 0.47 0.51 0.50 0.82 0.86 0.42 0.66 0.71 1.04 0.86 0.58 0.47 0.72 0.59 0.67 0.51 0.76 0.43 0.23 0.31 0.25 0.09 0.11 0.13 0.18 0.12 0.16 0.11 0.01 0.01 0.04 0.05 0.02 0.00
0.00 0.00 0.00 0.00 0.00 0.00 0.00 0.00 0.00 0.00 0.00 0.00 0.00 0.00 0.00 0.00 0.00 0.00 0.00 0.00 0.02 0.01 0.00 0.01 0.03 0.01 0.08 0.11 0.04 0.11 0.25 0.26 0.25 0.20 0.21 0.40 0.36 0.43 0.48 0.24 0.19 0.11 0.15 0.31 0.33 0.20 0.06 0.13 0.38 0.12 0.12 0.12 0.48 0.56 0.87 0.62 0.90 0.57 0.71 0.62 0.36 0.36 0.42 0.38 0.41 0.97 0.73 0.76 0.63 0.74 1.07 0.88 1.10 0.77 0.97 0.62 0.38 0.47 0.54 0.63 0.29 0.29 0.17 0.30 0.13 0.12 0.14 0.16 0.10 0.07 0.07 0.07 0.05 0.03 0.06 0.02 0.01
0.00 0.00 0.00 0.00 0.00 0.00 0.00 0.00 0.00 0.00 0.00 0.00 0.00 0.00 0.00 0.00 0.00 0.00 0.00 0.00 0.00 0.00 0.00 0.02 0.00 0.02 0.06 0.09 0.11 0.12 0.10 0.36 0.58 0.32 0.91 0.70 0.52 0.65 0.56 0.44 0.29 0.21 0.33 0.25 0.18 0.11 0.07 0.05 0.11 0.11 0.15 0.16 0.38 0.80 0.25 0.38 0.47 0.44 0.52 0.59 0.34 0.35 0.36 0.28 0.52 0.65 0.86 0.51 0.56 0.89 0.76 0.73 0.56 0.81 0.52 0.47 0.28 0.46 0.30 0.74 0.72 0.54 0.50 0.62 0.22 0.29 0.27 0.12 0.21 0.26 0.12 0.06 0.03 0.02 0.03 0.04 0.04
0.00 0.00 0.00 0.00 0.00 0.00 0.00 0.00 0.00 0.00 0.00 0.00 0.00 0.00 0.00 0.00 0.00 0.00 0.00 0.00 0.00 0.00 0.01 0.01 0.09 0.07 0.06 0.06 0.09 0.23 0.17 0.09 0.14 0.89 0.71 0.89 0.80 0.67 0.63 0.67 0.29 0.43 0.65 0.41 0.29 0.13 0.21 0.06 0.16 0.15 0.19 0.18 0.12 0.30 0.39 0.25 0.54 0.51 0.51 0.48 0.40 0.40 0.32 0.45 0.52 0.60 0.60 0.43 0.53 0.49 0.36 0.34 0.44 0.31 0.30 0.35 0.59 0.48 0.25 0.37 0.94 0.68 0.34 0.31 0.54 0.20 0.36 0.19 0.28 0.15 0.13 0.17 0.03 0.05 0.04 0.02 0.05
0.00 0.00 0.00 0.00 0.00 0.00 0.00 0.00 0.00 0.00 0.00 0.00 0.00 0.00 0.00 0.00 0.00 0.00 0.00 0.00 0.00 0.00 0.00 0.01 0.01 0.04 0.13 0.05 0.15 0.35 0.34 0.39 0.14 0.27 0.52 0.45 0.38 0.30 0.37 0.77 0.43 0.76 1.35 1.55 0.29 0.58 0.17 0.07 0.08 0.18 0.17 0.09 0.12 0.09 0.17 0.43 0.26 0.34 0.58 0.44 0.39 0.33 0.39 0.25 0.30 0.27 0.39 0.43 0.31 0.21 0.27 0.53 0.26 0.35 0.44 0.19 0.30 0.23 0.42 0.34 0.53 0.68 0.62 0.41 0.39 0.30 0.21 0.29 0.14 0.08 0.09 0.03 0.02 0.02 0.01 0.01 0.01
0.00 0.00 0.00 0.00 0.00 0.00 0.00 0.00 0.00 0.00 0.00 0.00 0.00 0.00 0.00 0.00 0.00 0.00 0.00 0.00 0.00 0.00 0.00 0.04 0.05 0.04 0.08 0.06 0.07 0.18 0.41 0.35 0.36 0.37 0.72 0.65 0.55 0.32 0.32 0.40 0.54 0.87 2.10 1.26 0.45 0.13 0.09 0.06 0.07 0.02 0.09 0.09 0.07 0.18 0.11 0.13 0.16 0.20 0.49 0.44 0.31 0.21 0.37 0.28 0.44 0.51 0.37 0.26 0.34 0.29 0.22 0.48 0.35 0.26 0.30 0.11 0.22 0.46 0.45 0.77 0.57 0.58 0.57 0.64 0.61 0.37 0.30 0.25 0.29 0.10 0.04 0.06 0.06 0.03 0.01 0.02 0.01
0.00 0.00 0.00 0.00 0.00 0.00 0.00 0.00 0.00 0.00 0.00 0.00 0.00 0.00 0.00 0.00 0.00 0.00 0.00 0.00 0.00 0.00 0.02 0.01 0.04 0.03 0.08 0.04 0.11 0.05 0.15 0.20 0.26 0.84 1.03 0.88 1.06 1.12 0.82 0.83 1.59 2.07 2.15 0.53 0.39 0.30 0.22 0.04 0.01 0.03 0.02 0.04 0.04 0.05 0.05 0.03 0.07 0.05 0.17 0.34 0.35 0.27 0.36 0.23 0.19 0.17 0.38 0.31 0.37 0.20 0.28 0.20 0.46 0.53 0.64 0.21 0.21 0.28 1.02 1.54 0.81 0.49 0.71 0.47 0.56 0.36 0.29 0.11 0.13 0.16 0.11 0.04 0.14 0.12 0.06 0.00 0.01
0.00 0.00 0.00 0.00 0.00 0.00 0.00 0.00 0.00 0.00 0.00 0.00 0.00 0.00 0.00 0.00 0.00 0.00 0.00 0.00 0.00 0.00 0.00 0.01 0.01 0.08 0.07 0.04 0.12 0.21 0.22 0.29 0.95 1.10 0.60 0.61 0.83 1.12 1.18 1.17 2.80 3.59 0.82 0.78 0.43 0.31 0.20 0.03 0.00 0.02 0.03 0.02 0.04 0.02 0.02 0.01 0.02 0.06 0.35 0.17 0.45 0.20 0.15 0.20 0.13 0.18 0.21 0.14 0.29 0.41 0.27 0.18 0.29 0.90 0.77 0.51 0.31 0.56 0.72 1.61 1.41 0.70 0.52 0.55 0.53 0.73 0.75 0.26 0.30 0.07 0.08 0.11 0.39 0.35 0.31 0.10 0.01
0.00 0.00 0.00 0.00 0.00 0.00 0.00 0.00 0.00 0.00 0.00 0.00 0.00 0.00 0.00 0.00 0.00 0.00 0.00 0.00 0.00 0.00 0.00 0.01 0.01 0.03 0.02 0.04 0.04 0.09 0.14 0.42 1.44 0.99 0.40 0.38 0.96 0.69 1.26 1.86 1.64 0.48 0.37 0.26 0.21 0.18 0.12 0.04 0.01 0.01 0.02 0.01 0.04 0.07 0.11 0.01 0.04 0.04 0.21 0.20 0.42 0.26 0.15 0.39 0.22 0.20 0.18 0.16 0.17 0.26 0.19 0.19 0.46 0.53 0.72 0.85 0.72 1.02 2.10 1.14 0.89 0.91 1.23 0.73 0.84 0.81 0.51 0.40 0.53 0.73 0.49 0.35 0.31 0.41 0.32 0.25 0.24
0.00 0.00 0.00 0.00 0.00 0.00 0.00 0.00 0.00 0.00 0.00 0.00 0.00 0.00 0.00 0.00 0.00 0.00 0.00 0.00 0.00 0.00 0.01 0.01 0.02 0.02 0.02 0.03 0.04 0.13 0.24 1.16 0.99 0.36 0.76 0.68 0.32 0.30 0.55 0.43 0.22 0.27 0.21 0.14 0.12 0.11 0.06 0.02 0.00 0.03 0.10 0.07 0.03 0.02 0.09 0.05 0.06 0.05 0.10 0.14 0.12 0.16 0.21 0.34 0.26 0.31 0.19 0.07 0.09 0.08 0.19 0.16 0.21 0.66 0.79 1.34 0.44 1.38 1.72 1.19 0.91 0.83 1.20 0.91 0.77 0.79 0.62 0.37 0.70 0.67 0.54 0.39 0.27 0.44 0.15 0.13 0.21
0.00 0.00 0.00 0.00 0.00 0.00 0.00 0.00 0.00 0.00 0.00 0.00 0.00 0.00 0.00 0.00 0.00 0.00 0.00 0.00 0.00 0.00 0.02 0.01 0.04 0.01 0.03 0.04 0.06 0.12 0.35 1.15 0.65 0.70 0.46 0.72 0.44 0.48 0.23 0.43 0.41 0.29 0.12 0.07 0.04 0.06 0.04 0.03 0.01 0.10 0.03 0.06 0.02 0.01 0.00 0.04 0.01 0.02 0.01 0.10 0.04 0.04 0.04 0.07 0.15 0.09 0.10 0.50 0.70 0.51 0.21 0.19 0.28 0.41 1.27 0.86 0.96 1.00 1.01 1.15 1.53 1.34 1.89 1.11 1.64 1.57 1.21 0.96 0.76 0.80 0.52 0.46 0.43 0.30 0.24 0.27 0.24
0.00 0.00 0.00 0.00 0.00 0.00 0.00 0.00 0.00 0.00 0.00 0.00 0.00 0.00 0.00 0.00 0.00 0.00 0.00 0.00 0.00 0.00 0.02 0.05 0.09 0.04 0.05 0.03 0.05 0.10 0.23 0.50 0.73 0.44 0.86 0.37 0.67 0.60 0.41 0.22 0.17 0.17 0.06 0.03 0.02 0.03 0.17 0.21 0.14 0.05 0.16 0.07 0.06 0.02 0.02 0.02 0.02 0.03 0.04 0.07 0.04 0.04 0.05 0.05 0.06 0.09 0.11 0.09 0.11 0.20 0.40 0.56 0.60 0.71 0.83 1.26 1.06 0.90 1.00 0.78 1.53 1.97 1.91 1.63 1.73 2.02 1.18 0.73 0.81 0.61 0.86 0.73 0.43 0.26 0.46 0.61 0.15
0.00 0.00 0.00 0.00 0.00 0.00 0.00 0.00 0.00 0.00 0.00 0.00 0.00 0.00 0.00 0.00 0.00 0.00 0.00 0.00 0.00 0.00 0.01 0.02 0.02 0.05 0.08 0.04 0.06 0.10 0.08 0.10 0.05 0.09 0.04 0.20 0.24 0.42 0.27 0.04 0.08 0.09 0.04 0.06 0.02 0.09 0.20 0.40 0.25 0.34 0.56 0.14 0.10 0.09 0.15 0.07 0.05 0.10 0.09 0.03 0.03 0.02 0.03 0.03 0.02 0.03 0.05 0.15 0.08 0.16 0.17 0.20 0.19 0.64 0.53 0.65 1.28 1.50 1.21 1.34 1.34 1.38 1.51 1.04 0.89 0.72 0.53 0.84 1.29 0.56 0.81 0.77 0.63 0.51 0.34 0.37 0.15
0.00 0.00 0.00 0.00 0.00 0.00 0.00 0.00 0.00 0.00 0.00 0.00 0.00 0.00 0.00 0.00 0.00 0.00 0.01 0.00 0.00 0.00 0.01 0.03 0.01 0.06 0.13 0.08 0.04 0.08 0.07 0.06 0.02 0.03 0.03 0.04 0.06 0.08 0.05 0.05 0.07 0.02 0.02 0.05 0.05 0.32 0.47 0.32 0.45 0.59 0.64 0.46 0.55 0.24 0.42 0.13 0.15 0.07 0.03 0.02 0.01 0.02 0.01 0.01 0.01 0.01 0.01 0.04 0.08 0.08 0.09 0.22 0.10 0.08 0.20 0.23 0.48 0.92 0.96 0.91 1.34 1.10 0.53 1.15 1.04 0.74 0.45 0.34 0.76 0.84 1.42 0.64 0.66 0.60 0.95 0.86 1.19
0.00 0.00 0.00 0.00 0.00 0.00 0.00 0.00 0.00 0.00 0.00 0.00 0.00 0.00 0.00 0.00 0.00 0.00 0.01 0.01 0.00 0.01 0.00 0.01 0.02 0.05 0.11 0.09 0.03 0.04 0.08 0.08 0.03 0.02 0.04 0.02 0.05 0.04 0.03 0.03 0.04 0.06 0.07 0.12 0.28 0.25 0.37 0.48 0.54 0.56 0.31 0.49 0.60 0.46 0.12 0.22 0.06 0.01 0.02 0.01 0.01 0.00 0.00 0.00 0.01 0.01 0.02 0.03 0.09 0.05 0.05 0.05 0.08 0.09 0.05 0.08 0.18 0.34 0.69 0.82 1.40 1.03 1.13 1.15 0.92 1.05 0.71 0.77 0.55 1.41 1.25 0.97 0.86 1.02 1.17 1.10 1.15
0.00 0.00 0.00 0.00 0.00 0.00 0.00 0.00 0.00 0.00 0.00 0.00 0.00 0.00 0.00 0.00 0.00 0.00 0.01 0.01 0.00 0.01 0.01 0.02 0.02 0.03 0.02 0.01 0.02 0.06 0.05 0.07 0.04 0.01 0.01 0.05 0.05 0.02 0.03 0.05 0.03 0.03 0.13 0.52 0.21 0.70 1.10 0.56 1.12 0.52 0.45 0.62 0.29 0.15 0.24 0.11 0.05 0.00 0.01 0.00 0.00 0.00 0.00 0.00 0.01 0.01 0.01 0.01 0.02 0.02 0.03 0.04 0.05 0.05 0.05 0.03 0.06 0.07 0.12 0.19 0.71 0.92 1.41 0.93 1.12 1.06 1.47 0.96 1.03 1.38 1.30 1.05 1.51 1.16 0.46 1.01 0.74
0.00 0.00 0.00 0.00 0.00 0.00 0.00 0.00 0.00 0.00 0.00 0.00 0.00 0.00 0.00 0.00 0.00 0.00 0.00 0.01 0.01 0.01 0.01 0.02 0.02 0.02 0.01 0.01 0.01 0.03 0.05 0.07 0.02 0.01 0.02 0.06 0.04 0.04 0.02 0.01 0.02 0.04 0.18 0.24 0.85 0.71 0.26 0.24 0.31 0.27 0.43 0.60 0.39 0.36 0.20 0.04 0.02 0.00 0.00 0.00 0.00 0.00 0.00 0.00 0.00 0.00 0.00 0.00 0.00 0.00 0.00 0.00 0.01 0.01 0.03 0.02 0.02 0.03 0.06 0.05 0.05 0.13 0.61 0.92 1.00 1.03 0.87 1.30 0.73 0.74 0.32 0.72 0.90 1.21 0.76 0.72 1.12
0.00 0.00 0.00 0.00 0.00 0.00 0.00 0.00 0.00 0.00 0.00 0.00 0.00 0.00 0.00 0.00 0.00 0.00 0.01 0.01 0.01 0.01 0.01 0.01 0.02 0.01 0.01 0.01 0.02 0.02 0.04 0.03 0.05 0.03 0.08 0.02 0.05 0.04 0.08 0.06 0.01 0.04 0.34 0.22 0.27 0.79 0.51 0.59 0.27 0.30 0.36 0.30 0.22 0.20 0.04 0.04 0.02 0.00 0.00 0.00 0.00 0.00 0.00 0.00 0.00 0.00 0.00 0.00 0.00 0.00 0.00 0.00 0.00 0.01 0.01 0.01 0.02 0.03 0.04 0.04 0.04 0.09 0.09 0.21 0.60 0.37 0.48 1.23 0.87 0.69 0.70 0.93 0.71 1.36 1.26 1.10 1.23
0.00 0.00 0.00 0.00 0.00 0.00 0.00 0.00 0.00 0.00 0.00 0.00 0.00 0.00 0.00 0.00 0.00 0.00 0.01 0.01 0.01 0.01 0.01 0.00 0.01 0.01 0.00 0.00 0.00 0.01 0.02 0.04 0.03 0.03 0.07 0.05 0.06 0.05 0.08 0.06 0.07 0.09 0.19 0.35 0.40 0.37 0.51 0.71 0.45 0.71 0.25 0.15 0.11 0.06 0.08 0.04 0.00 0.00 0.00 0.00 0.00 0.00 0.00 0.00 0.00 0.00 0.00 0.00 0.00 0.00 0.00 0.00 0.00 0.00 0.00 0.00 0.00 0.01 0.01 0.03 0.05 0.07 0.07 0.13 0.12 0.16 0.14 0.81 0.99 1.50 0.81 1.03 2.03 1.20 1.01 1.45 0.97
0.00 0.00 0.00 0.00 0.00 0.00 0.02 0.00 0.00 0.00 0.00 0.00 0.00 0.01 0.01 0.00 0.00 0.00 0.00 0.00 0.01 0.01 0.01 0.01 0.01 0.00 0.00 0.01 0.01 0.01 0.01 0.05 0.01 0.04 0.07 0.07 0.05 0.09 0.04 0.05 0.05 0.06 0.16 0.31 0.71 0.39 0.42 1.01 1.88 0.48 0.06 0.02 0.04 0.07 0.12 0.03 0.01 0.00 0.00 0.00 0.00 0.00 0.00 0.00 0.00 0.00 0.00 0.00 0.00 0.00 0.00 0.00 0.00 0.00 0.00 0.00 0.00 0.00 0.00 0.01 0.01 0.03 0.05 0.06 0.12 0.34 0.24 0.13 0.35 1.10 0.80 1.01 1.13 1.62 0.69 1.09 2.38
0.00 0.00 0.00 0.00 0.00 0.00 0.00 0.05 0.00 0.00 0.00 0.00 0.00 0.00 0.00 0.00 0.00 0.00 0.00 0.00 0.00 0.00 0.02 0.01 0.01 0.01 0.01 0.01 0.01 0.01 0.00 0.02 0.02 0.03 0.09 0.06 0.07 0.06 0.03 0.04 0.04 0.11 0.21 0.09 0.30 0.31 0.55 0.68 0.73 0.88 0.36 0.16 0.07 0.12 0.11 0.04 0.00 0.00 0.00 0.00 0.00 0.00 0.00 0.00 0.00 0.00 0.00 0.00 0.00 0.00 0.00 0.00 0.00 0.00 0.00 0.00 0.00 0.00 0.00 0.01 0.01 0.01 0.02 0.03 0.04 0.07 0.11 0.16 0.10 0.16 0.39 0.64 0.86 0.91 1.27 1.37 1.26
0.00 0.00 0.00 0.00 0.00 0.00 0.00 0.00 0.00 0.00 0.01 0.00 0.00 0.00 0.00 0.00 0.00 0.00 0.00 0.00 0.00 0.00 0.01 0.01 0.02 0.01 0.01 0.01 0.01 0.01 0.01 0.01 0.03 0.01 0.04 0.06 0.06 0.11 0.07 0.10 0.14 0.46 0.61 0.47 0.33 0.34 0.01 0.02 0.68 0.94 0.68 0.27 0.01 0.02 0.10 0.00 0.00 0.00 0.00 0.00 0.00 0.00 0.00 0.00 0.00 0.00 0.00 0.00 0.00 0.00 0.00 0.00 0.00 0.00 0.00 0.00 0.00 0.00 0.00 0.01 0.01 0.00 0.01 0.01 0.01 0.02 0.03 0.04 0.06 0.06 0.22 0.13 0.58 0.55 0.35 0.81 0.73
0.00 0.02 0.00 0.00 0.00 0.00 0.00 0.00 0.00 0.00 0.03 0.04 0.00 0.01 0.03 0.00 0.00 0.00 0.00 0.00 0.00 0.00 0.00 0.01 0.01 0.01 0.02 0.01 0.02 0.01 0.01 0.01 0.01 0.02 0.08 0.10 0.19 0.22 0.15 0.28 0.31 0.53 0.75 0.66 0.60 0.15 0.03 0.00 0.00 0.78 0.62 0.24 0.06 0.14 0.02 0.00 0.00 0.00 0.00 0.00 0.00 0.00 0.00 0.00 0.00 0.00 0.00 0.00 0.00 0.00 0.00 0.00 0.00 0.00 0.00 0.00 0.00 0.00 0.00 0.00 0.01 0.01 0.01 0.01 0.00 0.01 0.03 0.03 0.03 0.06 0.07 0.06 0.08 0.24 0.18 0.43 0.62
0.02 0.01 0.00 0.00 0.00 0.00 0.00 0.00 0.00 0.02 0.00 0.00 0.00 0.00 0.02 0.00 0.03 0.00 0.00 0.00 0.00 0.02 0.00 0.00 0.01 0.05 0.01 0.02 0.04 0.02 0.01 0.01 0.01 0.02 0.14 0.28 0.21 0.18 0.20 0.23 0.49 0.45 0.62 0.25 0.12 0.24 0.20 0.04 0.18 0.65 0.75 0.07 0.02 0.00 0.01 0.00 0.00 0.00 0.00 0.00 0.00 0.00 0.00 0.00 0.00 0.00 0.00 0.00 0.00 0.00 0.00 0.00 0.00 0.00 0.00 0.00 0.00 0.00 0.00 0.00 0.01 0.01 0.02 0.01 0.01 0.01 0.01 0.01 0.02 0.02 0.03 0.02 0.05 0.07 0.08 0.11 0.21
0.02 0.00 0.00 0.00 0.00 0.01 0.00 0.00 0.00 0.03 0.01 0.04 0.00 0.00 0.00 0.03 0.02 0.00 0.00 0.00 0.00 0.03 0.02 0.02 0.01 0.06 0.02 0.01 0.03 0.03 0.01 0.03 0.01 0.10 0.17 0.22 0.30 0.21 0.28 0.18 0.41 0.23 0.09 0.20 0.13 0.25 0.46 0.77 0.83 0.48 0.20 0.16 0.04 0.00 0.00 0.00 0.01 0.00 0.00 0.00 0.00 0.00 0.00 0.00 0.00 0.00 0.00 0.00 0.00 0.00 0.00 0.00 0.00 0.00 0.00 0.00 0.00 0.00 0.00 0.00 0.01 0.01 0.01 0.01 0.00 0.01 0.01 0.01 0.01 0.03 0.05 0.05 0.04 0.08 0.03 0.05 0.05
0.00 0.00 0.00 0.00 0.00 0.00 0.00 0.00 0.00 0.08 0.00 0.02 0.02 0.07 0.03 0.03 0.01 0.02 0.00 0.00 0.04 0.05 0.07 0.01 0.07 0.07 0.04 0.03 0.02 0.04 0.03 0.02 0.04 0.13 0.10 0.04 0.13 0.48 0.34 0.22 0.09 0.15 0.34 0.71 0.71 0.84 0.98 1.40 0.84 0.49 0.16 0.17 0.06 0.07 0.01 0.03 0.00 0.00 0.00 0.00 0.00 0.00 0.00 0.00 0.00 0.00 0.00 0.00 0.00 0.00 0.00 0.00 0.00 0.00 0.00 0.00 0.00 0.00 0.00 0.00 0.00 0.00 0.00 0.00 0.00 0.00 0.00 0.01 0.02 0.04 0.04 0.02 0.02 0.02 0.04 0.08 0.05
0.00 0.00 0.00 0.00 0.00 0.01 0.00 0.00 0.04 0.03 0.00 0.01 0.02 0.01 0.00 0.04 0.06 0.01 0.01 0.01 0.00 0.01 0.00 0.01 0.03 0.06 0.04 0.03 0.03 0.03 0.05 0.05 0.22 0.10 0.03 0.01 0.03 0.44 0.64 0.23 0.06 0.04 0.19 0.54 1.29 1.31 0.98 0.94 0.64 0.24 0.52 0.38 0.17 0.26 0.12 0.12 0.01 0.00 0.00 0.00 0.00 0.00 0.00 0.00 0.00 0.00 0.00 0.00 0.00 0.00 0.00 0.00 0.00 0.00 0.00 0.00 0.00 0.00 0.00 0.00 0.00 0.00 0.00 0.00 0.00 0.00 0.00 0.00 0.01 0.00 0.01 0.00 0.01 0.02 0.02 0.04 0.05
0.00 0.00 0.02 0.00 0.02 0.00 0.00 0.04 0.03 0.07 0.00 0.02 0.01 0.00 0.02 0.06 0.05 0.01 0.01 0.00 0.00 0.02 0.01 0.01 0.02 0.00 0.03 0.03 0.06 0.03 0.02 0.03 0.04 0.03 0.01 0.01 0.01 0.08 0.43 0.33 0.03 0.03 0.03 0.41 1.25 1.32 1.42 1.52 0.50 0.92 0.49 0.35 0.89 0.47 0.22 0.05 0.01 0.00 0.00 0.00 0.00 0.00 0.00 0.00 0.00 0.00 0.00 0.00 0.00 0.00 0.00 0.00 0.00 0.00 0.00 0.00 0.00 0.00 0.00 0.00 0.00 0.00 0.00 0.00 0.00 0.00 0.00 0.00 0.00 0.00 0.00 0.00 0.00 0.00 0.02 0.03 0.03
0.00 0.00 0.01 0.19 0.10 0.03 0.03 0.04 0.01 0.01 0.03 0.04 0.00 0.00 0.03 0.00 0.27 0.03 0.01 0.00 0.01 0.00 0.00 0.02 0.01 0.01 0.00 0.02 0.02 0.03 0.04 0.06 0.04 0.04 0.01 0.02 0.02 0.07 0.60 0.16 0.02 0.03 0.08 0.61 0.91 0.79 1.15 1.09 1.06 0.32 0.22 0.29 0.41 0.14 0.02 0.03 0.00 0.00 0.00 0.00 0.00 0.00 0.00 0.00 0.00 0.00 0.00 0.00 0.00 0.00 0.00 0.00 0.00 0.00 0.00 0.00 0.00 0.00 0.00 0.00 0.00 0.00 0.00 0.00 0.00 0.00 0.00 0.00 0.00 0.00 0.00 0.00 0.00 0.00 0.00 0.01 0.06
0.00 0.01 0.13 0.02 0.06 0.03 0.01 0.03 0.01 0.03 0.03 0.01 0.03 0.00 0.01 0.01 0.04 0.01 0.03 0.00 0.00 0.00 0.00 0.02 0.01 0.01 0.01 0.01 0.01 0.10 0.06 0.09 0.08 0.06 0.01 0.02 0.02 0.01 0.10 0.13 0.13 0.03 0.18 0.61 0.56 0.47 0.87 1.04 1.20 1.06 0.60 0.31 0.49 0.32 0.08 0.05 0.00 0.00 0.00 0.00 0.00 0.00 0.00 0.00 0.00 0.00 0.00 0.00 0.00 0.00 0.00 0.00 0.00 0.00 0.00 0.00 0.00 0.00 0.00 0.00 0.00 0.00 0.00 0.00 0.00 0.00 0.00 0.00 0.00 0.00 0.00 0.00 0.00 0.00 0.00 0.00 0.00
0.01 0.00 0.01 0.08 0.07 0.04 0.01 0.04 0.03 0.00 0.08 0.05 0.01 0.00 0.01 0.01 0.25 0.00 0.00 0.00 0.01 0.00 0.01 0.00 0.00 0.00 0.00 0.01 0.00 0.02 0.15 0.15 0.11 0.10 0.07 0.02 0.02 0.01 0.01 0.01 0.01 0.02 0.17 0.45 0.25 0.60 0.65 1.31 1.59 1.90 0.99 0.57 0.15 0.11 0.09 0.07 0.01 0.00 0.00 0.00 0.00 0.00 0.00 0.00 0.00 0.00 0.00 0.00 0.00 0.00 0.00 0.00 0.00 0.00 0.00 0.00 0.00 0.00 0.00 0.00 0.00 0.00 0.00 0.00 0.00 0.00 0.00 0.00 0.00 0.00 0.00 0.00 0.00 0.00 0.00 0.00 0.00
0.01 0.00 0.00 0.04 0.00 0.00 0.03 0.11 0.02 0.01 0.02 0.01 0.00 0.00 0.07 0.19 0.08 0.00 0.03 0.01 0.01 0.00 0.00 0.00 0.02 0.01 0.00 0.02 0.02 0.01 0.03 0.08 0.25 0.24 0.17 0.20 0.18 0.24 0.20 0.09 0.07 0.15 0.14 0.42 0.58 1.34 1.10 1.61 1.81 1.45 0.96 0.77 0.61 0.25 0.19 0.09 0.11 0.02 0.04 0.03 0.00 0.00 0.00 0.00 0.00 0.00 0.00 0.00 0.00 0.00 0.00 0.00 0.00 0.00 0.00 0.00 0.00 0.00 0.00 0.00 0.00 0.00 0.00 0.00 0.00 0.00 0.00 0.00 0.00 0.00 0.00 0.00 0.00 0.00 0.00 0.00 0.00
0.16 0.00 0.01 0.03 0.02 0.01 0.02 0.00 0.00 0.00 0.00 0.02 0.00 0.01 0.01 0.02 0.00 0.00 0.04 0.03 0.00 0.00 0.00 0.01 0.02 0.00 0.00 0.02 0.02 0.04 0.09 0.19 0.28 0.20 0.29 0.41 0.51 0.81 0.62 0.72 0.36 0.25 0.19 0.67 1.72 0.86 1.16 1.75 1.67 0.74 0.93 0.69 0.54 0.38 0.26 0.14 0.06 0.09 0.03 0.06 0.03 0.02 0.00 0.00 0.00 0.00 0.00 0.00 0.00 0.00 0.00 0.00 0.00 0.00 0.00 0.00 0.00 0.00 0.00 0.00 0.00 0.00 0.00 0.00 0.00 0.00 0.00 0.00 0.00 0.00 0.00 0.00 0.00 0.00 0.00 0.00 0.00
0.03 0.02 0.03 0.00 0.00 0.00 0.01 0.05 0.05 0.00 0.03 0.01 0.00 0.00 0.04 0.01 0.15 0.00 0.02 0.05 0.01 0.01 0.01 0.02 0.01 0.03 0.02 0.03 0.06 0.12 0.35 0.38 0.15 0.17 0.54 0.50 0.47 0.68 0.56 0.52 0.30 0.10 0.28 0.51 0.54 0.38 0.56 1.61 1.24 0.87 1.03 0.41 0.20 0.52 0.39 0.20 0.04 0.03 0.03 0.08 0.06 0.02 0.00 0.00 0.01 0.01 0.00 0.04 0.00 0.00 0.00 0.00 0.00 0.00 0.00 0.00 0.00 0.00 0.00 0.00 0.00 0.00 0.00 0.00 0.00 0.00 0.00 0.00 0.00 0.00 0.00 0.00 0.00 0.00 0.00 0.00 0.00
0.00 0.04 0.00 0.00 0.04 0.03 0.04 0.00 0.00 0.00 0.00 0.04 0.00 0.01 0.01 0.02 0.13 0.02 0.05 0.02 0.02 0.03 0.02 0.02 0.01 0.01 0.01 0.00 0.00 0.01 0.02 0.04 0.09 0.14 0.23 0.49 0.35 0.32 0.16 0.18 0.07 0.05 0.04 0.05 0.06 0.09 0.36 1.45 1.25 1.09 0.80 0.57 0.94 0.47 0.27 0.46 0.35 0.09 0.04 0.01 0.03 0.01 0.01 0.00 0.01 0.04 0.03 0.02 0.01 0.02 0.00 0.00 0.00 0.00 0.00 0.00 0.00 0.00 0.00 0.00 0.00 0.00 0.00 0.00 0.00 0.00 0.00 0.00 0.00 0.00 0.00 0.00 0.00 0.00 0.00 0.00 0.00
0.00 0.00 0.00 0.00 0.00 0.00 0.04 0.02 0.08 0.01 0.04 0.01 0.01 0.01 0.03 0.02 0.07 0.01 0.09 0.08 0.03 0.03 0.03 0.01 0.01 0.02 0.01 0.00 0.01 0.00 0.00 0.01 0.03 0.02 0.04 0.06 0.09 0.39 0.39 0.26 0.28 0.15 0.11 0.13 0.10 0.05 0.23 0.55 0.57 1.04 0.47 0.30 0.45 0.47 0.61 0.56 0.26 0.08 0.03 0.02 0.02 0.04 0.01 0.00 0.01 0.00 0.01 0.05 0.03 0.01 0.00 0.00 0.00 0.00 0.00 0.00 0.00 0.00 0.00 0.00 0.00 0.00 0.00 0.00 0.00 0.00 0.00 0.00 0.00 0.00 0.00 0.00 0.00 0.00 0.00 0.00 0.00
0.01 0.00 0.00 0.00 0.00 0.01 0.00 0.03 0.01 0.08 0.11 0.02 0.04 0.03 0.11 0.09 0.05 0.01 0.04 0.05 0.05 0.02 0.03 0.04 0.01 0.01 0.01 0.01 0.03 0.02 0.02 0.01 0.01 0.01 0.01 0.00 0.01 0.01 0.02 0.05 0.07 0.06 0.04 0.02 0.03 0.04 0.03 0.04 0.04 0.05 0.11 0.20 0.43 0.24 0.36 0.60 0.19 0.16 0.08 0.03 0.07 0.10 0.06 0.04 0.02 0.01 0.01 0.01 0.08 0.01 0.00 0.00 0.00 0.00 0.01 0.00 0.01 0.00 0.00 0.00 0.00 0.00 0.00 0.00 0.00 0.00 0.00 0.00 0.00 0.00 0.00 0.00 0.00 0.00 0.00 0.00 0.00
0.00 0.00 0.06 0.02 0.09 0.05 0.02 0.02 0.00 0.04 0.02 0.01 0.01 0.04 0.14 0.07 0.01 0.00 0.01 0.01 0.01 0.01 0.03 0.05 0.02 0.01 0.00 0.00 0.00 0.02 0.04 0.08 0.06 0.06 0.09 0.04 0.01 0.00 0.00 0.01 0.02 0.05 0.08 0.06 0.07 0.05 0.02 0.02 0.03 0.02 0.01 0.03 0.09 0.15 0.14 0.07 0.18 0.26 0.10 0.10 0.07 0.03 0.03 0.01 0.01 0.06 0.10 0.03 0.04 0.03 0.02 0.01 0.01 0.01 0.00 0.01 0.00 0.00 0.00 0.00 0.00 0.00 0.00 0.00 0.00 0.00 0.00 0.00 0.00 0.00 0.00 0.00 0.00 0.00 0.00 0.00 0.00